Location: Biltmore Gardens
(41.6070°N, 83.4666°W)
Time: 14:26:04
(UTC+00:00)

Cosmos 1816 Rocket - Pass Details

Date: 14 July 2020
Orbit: 952 x 998 km, 82.9° (Epoch: 04 August)

Event Time Altitude Azimuth Distance (km) Brightness Sun altitude
Rises 07:35:20 0° 351° (N) 3,729 8.4 -21.4°
Reaches altitude 10° 07:37:52 10° 352° (N) 2,776 7.6 -21.1°
Maximum altitude 07:44:16 86° 265° (W) 1,004 4.5 -20.5°
Enters shadow 07:47:47 29° 177° (S) 1,742 5.4 -20.2°
